Regional Weather Roundup
Issued by NWS

Home | Current Version | Previous Version | Graphics & Text | Print | Product List | Glossary On
Versions: 1 2 3 4 5 6 7 8 9 10 11 12 13 14 15 16 17 18 19 20 21 22 23 24 25 26 27 28 29 30 31 32 33 34 35 36 37 38 39 40 41 42 43 44 45 46 47 48 49 50
394
ASUS43 KOAX 112202
RWRNE

WEATHER ROUNDUP FOR NEBRASKA
NATIONAL WEATHER SERVICE OMAHA NE
400 PM CST THU FEB 11 2016

NOTES: SATELLITE DATA IS BEING USED TO AUGMENT CLOUD COVER ABOVE
       12000 FEET.
       "FAIR" INDICATES FEW OR NO CLOUDS BELOW 12,000 FEET WITH NO
       SIGNIFICANT WEATHER AND/OR OBSTRUCTIONS TO VISIBILITY.

  * THESE STATIONS DO NOT REPORT WEATHER SUCH AS RAIN...SNOW OR FOG.

NEZ001>004-019>022-054>056-112300-
NEBRASKA PANHANDLE

CITY           SKY/WX    TMP DP  RH WIND       PRES   REMARKS
SCOTTSBLUFF    CLOUDY    58  26  29 NW29G37   30.09S
ALLIANCE       CLOUDY    51  33  50 NW10      30.06S
CHADRON        SUNNY     58  26  29 NW22G36   30.06R
KIMBALL        SUNNY     53  26  34 NW24G31   30.12S
SIDNEY         SUNNY     53  33  46 NW9       30.11R
$$

NEZ057>060-069>072-079>082-112300-
SOUTHWEST NEBRASKA

CITY           SKY/WX    TMP DP  RH WIND       PRES   REMARKS
NORTH PLATTE   SUNNY     50  33  52 SW5       30.03S
IMPERIAL       CLOUDY    52  32  46 NW12      30.06R
LEXINGTON      CLOUDY    38  31  75 SW7       30.06F WCI  33
MCCOOK         SUNNY     46  33  60 SW3       30.05S
$$

NEZ005>010-023>029-035>040-094-112300-
NORTH CENTRAL NEBRASKA

CITY           SKY/WX    TMP DP  RH WIND       PRES   REMARKS
VALENTINE      MOSUNNY   53  33  46 NW15      29.98R
AINSWORTH      SUNNY     53  32  44 NW25G36   29.98R
BROKEN BOW     CLOUDY    41  31  67 SW8       30.01F
ORD            PTSUNNY   35  30  82 SW16      30.04S WCI  25
$$

NEZ041-046>049-061>064-073>077-083>087-112300-
SOUTH CENTRAL NEBRASKA

CITY           SKY/WX    TMP DP  RH WIND       PRES   REMARKS
GRAND ISLAND   CLOUDY    29  25  85 SW18      30.08F WCI  16
AURORA         CLOUDY    29  26  88 SW13      30.09S WCI  18
HASTINGS       CLOUDY    30  25  81 SW13      30.09S WCI  20
HEBRON         CLOUDY    28  25  87 S9        30.13F FOG     WCI  19
KEARNEY *      CLOUDY    32  28  86 SW14      30.08S WCI  22
YORK           CLOUDY    28  27  93 S14       30.10S WCI  17
$$

NEZ011>018-030>034-042>045-112300-
NORTHEAST NEBRASKA

CITY           SKY/WX    TMP DP  RH WIND       PRES   REMARKS
NORFOLK        CLOUDY    26  21  81 SE9       30.10F WCI  17
ALBION         CLOUDY    29  25  86 S13       30.08S FOG     WCI  18
BLAIR          CLOUDY    25  19  79 SE5       30.16R WCI  19
COLUMBUS *     CLOUDY    27  16  63 S10       30.12F WCI  17
FREMONT        CLOUDY    26  20  77 SE6       30.16S WCI  19
TEKAMAH        CLOUDY    21  14  74 E8        30.19F WCI  11
$$

NEZ050>053-065>068-078-088>093-112300-
SOUTHEAST NEBRASKA

CITY           SKY/WX    TMP DP  RH WIND       PRES   REMARKS
LINCOLN        CLOUDY    28  22  78 SW12      30.17R WCI  18
OMAHA EPPLEY   CLOUDY    26  18  71 CALM      30.19S
BEATRICE       CLOUDY    30  23  75 S13       30.14F WCI  20
FALLS CITY     PTSUNNY   36  21  54 S10       30.17F WCI  28
NEBRASKA CITY  CLOUDY    33  21  61 S12       30.15F WCI  24
PLATTSMOUTH    CLOUDY    30  21  68 SE8       30.17R WCI  23
$$

NEZ044-045-051>053-067-112300-
OMAHA AREA

CITY           SKY/WX    TMP DP  RH WIND       PRES   REMARKS
OMAHA EPPLEY   CLOUDY    26  18  71 CALM      30.19S
BLAIR          CLOUDY    25  19  79 SE5       30.16R WCI  19
FREMONT        CLOUDY    26  20  77 SE6       30.16S WCI  19
OFFUTT AFB     PTSUNNY   30  20  66 SE6       30.17F WCI  24
PLATTSMOUTH    CLOUDY    30  21  68 SE8       30.17R WCI  23
WAHOO          MOCLDY    27  21  79 S8        30.16R WCI  19
$$




USA.gov is the U.S. government's official web portal to all federal, state and local government web resources and services.